Weather History for Kansas City International, MO

Change the Weather History Date:

Sunday, May 18, 2014

  Actual Average Record
Temperature  
Mean Temperature 58 °F 65 °F  
Max Temperature 72 °F 75 °F 91 °F (1997)
Min Temperature 43 °F 55 °F 39 °F (1915)
Degree Days  
Heating Degree Days 7 3  
Month to date heating degree days 113 79  
Since 1 July heating degree days 5788 5099  
Cooling Degree Days 0 3  
Month to date cooling degree days 47 34  
Year to date cooling degree days 56 62  
Growing Degree Days 8 (Base 50)    
Moisture  
Dew Point 41 °F    
Average Humidity 54    
Maximum Humidity 70    
Minimum Humidity 38    
Precipitation  
Precipitation 0.00 in 0.17 in 3.21 in (1974)
Month to date precipitation 0.78 3.03  
Year to date precipitation 8.07 11.63  
Snow  
Snow 0.00 in 0.00 in 0.00 in ()
Month to date snowfall 0.0 0.0  
Since 1 July snowfall 26.1 18.8  
Snow Depth 0.00 in    
Sea Level Pressure  
Sea Level Pressure 30.11 in    
Wind  
Wind Speed 13 mph (SSE)    
Max Wind Speed 22 mph    
Max Gust Speed 28 mph    
Visibility 10 miles    
Events      
T = Trace of Precipitation, MM = Missing Value Source: NWS Daily Summary

Daily Weather History Graph

Daily Weather History Graph

Search for Another Location

Airport:

Trip Planner

Search our weather history database for the weather conditions in past years. The results will help you decide how hot, cold, wet, or windy it might be!

Date:

Astronomy

May. 18, 2014 Rise Set
Actual Time 6:02 AM CDT 8:28 PM CDT
Civil Twilight 5:32 AM CDT 8:58 PM CDT
Nautical Twilight 4:54 AM CDT 9:36 PM CDT
Astronomical Twilight 4:12 AM CDT 10:18 PM CDT
Moon No Moon Rise 9:52 AM CDT (5/18)
Length of Visible Light 15h 26m
Length of Day
14h 25m
Waning Gibbous, 81% of the Moon is Illuminated
May 18
Waning Gibbous
May 21
Last Quarter
May 28
New
Jun 5
First Quarter
Jun 12
Full

Hourly Weather History & Observations

Time (CDT) Temp. Windchill Dew Point Humidity Pressure Visibility Wind Dir Wind Speed Gust Speed Precip Events Conditions
12:53 AM 48.0 °F - 35.1 °F 61% 30.18 in 10.0 mi SSE 5.8 mph - N/A   Clear
1:53 AM 45.0 °F 41.2 °F 36.0 °F 71% 30.17 in 10.0 mi SSE 6.9 mph - N/A   Clear
2:53 AM 48.9 °F - 34.0 °F 56% 30.17 in 10.0 mi SSE 5.8 mph - N/A   Clear
3:53 AM 46.9 °F - 34.0 °F 61% 30.18 in 10.0 mi SSE 8.1 mph - N/A   Clear
4:53 AM 44.6 °F 40.7 °F 33.8 °F 66% 30.18 in 10.0 mi SSE 6.9 mph - N/A   Clear
5:53 AM 45.0 °F 40.6 °F 34.0 °F 65% 30.18 in 10.0 mi SSE 8.1 mph - N/A   Clear
6:53 AM 45.0 °F 40.6 °F 36.0 °F 71% 30.19 in 10.0 mi SSE 8.1 mph - N/A   Clear
7:53 AM 53.1 °F - 39.0 °F 59% 30.18 in 10.0 mi SSE 9.2 mph - N/A   Partly Cloudy
8:53 AM 59.0 °F - 36.0 °F 42% 30.19 in 10.0 mi SSE 12.7 mph - N/A   Partly Cloudy
9:53 AM 63.0 °F - 41.0 °F 45% 30.18 in 10.0 mi SSE 11.5 mph - N/A   Scattered Clouds
10:53 AM 66.0 °F - 44.1 °F 45% 30.17 in 10.0 mi South 10.4 mph - N/A   Scattered Clouds
11:53 AM 66.9 °F - 45.0 °F 45% 30.16 in 10.0 mi SE 16.1 mph 20.7 mph N/A   Scattered Clouds
12:53 PM 68.0 °F - 44.1 °F 42% 30.14 in 10.0 mi South 15.0 mph 20.7 mph N/A   Scattered Clouds
1:53 PM 69.1 °F - 46.0 °F 44% 30.12 in 10.0 mi SSW 10.4 mph 21.9 mph N/A   Scattered Clouds
2:53 PM 71.1 °F - 46.0 °F 41% 30.09 in 10.0 mi SSE 12.7 mph - N/A   Mostly Cloudy
3:53 PM 71.1 °F - 45.0 °F 39% 30.06 in 10.0 mi SE 17.3 mph 21.9 mph N/A   Mostly Cloudy
4:53 PM 70.0 °F - 44.1 °F 39% 30.04 in 10.0 mi SSE 18.4 mph 23.0 mph N/A   Mostly Cloudy
5:53 PM 70.0 °F - 44.1 °F 39% 30.02 in 10.0 mi SSE 15.0 mph 25.3 mph N/A   Overcast
6:53 PM 70.0 °F - 45.0 °F 41% 30.00 in 10.0 mi SSE 15.0 mph - N/A   Mostly Cloudy
7:53 PM 66.9 °F - 46.0 °F 47% 29.99 in 10.0 mi SSE 19.6 mph - N/A   Mostly Cloudy
8:53 PM 64.9 °F - 46.0 °F 50% 29.98 in 10.0 mi SSE 11.5 mph - N/A   Mostly Cloudy
9:53 PM 64.9 °F - 46.0 °F 50% 29.97 in 10.0 mi SE 15.0 mph - N/A   Mostly Cloudy
10:53 PM 64.0 °F - 46.9 °F 54% 29.96 in 10.0 mi SSE 17.3 mph - N/A   Scattered Clouds
11:53 PM 64.0 °F - 48.9 °F 58% 29.97 in 10.0 mi SSE 16.1 mph - N/A   Clear